TimeEDT,TemperatureF,Dew PointF,Humidity,Sea Level PressureIn,VisibilityMPH,Wind Direction,Wind SpeedMPH,Gust SpeedMPH,PrecipitationIn,Events,Conditions,WindDirDegrees,DateUTC
12:53 AM,69.1,64.0,84,30.01,10.0,Calm,Calm,-,N/A,,Partly Cloudy,0,2013-11-01 04:53:00
1:53 AM,66.0,63.0,90,29.98,10.0,ESE,3.5,-,N/A,,Clear,120,2013-11-01 05:53:00
2:53 AM,64.0,62.1,93,29.96,9.0,Calm,Calm,-,N/A,,Clear,0,2013-11-01 06:53:00
3:53 AM,64.0,62.1,93,29.95,8.0,Calm,Calm,-,N/A,,Clear,0,2013-11-01 07:53:00
4:53 AM,66.0,63.0,90,29.95,10.0,Calm,Calm,-,N/A,,Clear,0,2013-11-01 08:53:00
5:53 AM,68.0,64.0,87,29.95,10.0,South,3.5,-,N/A,,Mostly Cloudy,170,2013-11-01 09:53:00
6:53 AM,66.9,64.0,90,29.95,10.0,SSE,5.8,-,N/A,,Clear,160,2013-11-01 10:53:00
7:53 AM,68.0,64.0,87,29.95,10.0,South,4.6,-,N/A,,Clear,170,2013-11-01 11:53:00
8:53 AM,70.0,66.0,87,29.95,10.0,South,4.6,-,N/A,,Clear,170,2013-11-01 12:53:00
9:53 AM,72.0,66.9,84,29.94,10.0,SSE,5.8,-,N/A,,Clear,150,2013-11-01 13:53:00
10:53 AM,80.1,69.1,69,29.95,10.0,South,11.5,17.3,N/A,,Scattered Clouds,190,2013-11-01 14:53:00
11:53 AM,82.0,66.9,60,29.93,10.0,South,16.1,21.9,N/A,,Overcast,190,2013-11-01 15:53:00
12:53 PM,82.9,66.0,56,29.93,10.0,SW,10.4,17.3,N/A,,Overcast,220,2013-11-01 16:53:00
1:53 PM,84.9,64.9,51,29.90,10.0,SW,17.3,23.0,N/A,,Overcast,230,2013-11-01 17:53:00
2:53 PM,84.0,68.0,58,29.89,10.0,WSW,13.8,23.0,N/A,,Overcast,240,2013-11-01 18:53:00
3:53 PM,80.1,68.0,67,29.88,10.0,SW,15.0,19.6,N/A,,Overcast,230,2013-11-01 19:53:00
4:53 PM,81.0,70.0,69,29.86,10.0,SW,8.1,16.1,N/A,,Scattered Clouds,220,2013-11-01 20:53:00
5:53 PM,80.1,70.0,71,29.85,10.0,SW,8.1,-,N/A,,Clear,220,2013-11-01 21:53:00
6:53 PM,78.1,70.0,76,29.85,10.0,SSW,6.9,-,N/A,,Clear,200,2013-11-01 22:53:00
7:53 PM,77.0,71.1,82,29.86,10.0,SSW,6.9,-,N/A,,Clear,210,2013-11-01 23:53:00
8:53 PM,77.0,71.1,82,29.87,10.0,SW,5.8,-,N/A,,Scattered Clouds,220,2013-11-02 00:53:00
9:53 PM,75.9,71.1,85,29.87,10.0,SW,5.8,-,N/A,,Clear,220,2013-11-02 01:53:00
10:53 PM,75.9,71.1,85,29.85,10.0,South,6.9,-,N/A,,Mostly Cloudy,190,2013-11-02 02:53:00
11:02 PM,75.2,71.6,89,29.87,10.0,South,5.8,-,N/A,,Scattered Clouds,190,2013-11-02 03:02:00
11:21 PM,75.2,71.6,89,29.86,10.0,South,8.1,-,N/A,,Mostly Cloudy,190,2013-11-02 03:21:00
11:53 PM,77.0,72.0,84,29.86,10.0,South,9.2,-,N/A,,Mostly Cloudy,190,2013-11-02 03:53:00